Weather History for Wrangell, AK

Change the Weather History Date:

Friday, January 17, 2014

  Actual Average Record
Temperature  
Mean Temperature 42 °F -  
Max Temperature 46 °F 35 °F 51 °F (1981)
Min Temperature 39 °F 24 °F 2 °F (1971)
Degree Days  
Heating Degree Days 22    
Moisture  
Dew Point 35 °F    
Average Humidity 73    
Maximum Humidity 81    
Minimum Humidity 61    
Precipitation  
Precipitation 0.00 in - - ()
Sea Level Pressure  
Sea Level Pressure 30.04 in    
Wind  
Wind Speed 9 mph (ESE)    
Max Wind Speed 17 mph    
Max Gust Speed 24 mph    
Visibility 10 miles    
Events      
Averages and records for this station are not official NWS values.
T = Trace of Precipitation, MM = Missing Value Source: NWS Daily Summary

Daily Weather History Graph

Daily Weather History Graph

Search for Another Location

Airport:

Trip Planner

Search our weather history database for the weather conditions in past years. The results will help you decide how hot, cold, wet, or windy it might be!

Date:

Astronomy

Jan. 17, 2014 Rise Set
Actual Time 8:10 AM AKST 3:49 PM AKST
Civil Twilight 7:25 AM AKST 4:34 PM AKST
Nautical Twilight 6:38 AM AKST 5:21 PM AKST
Astronomical Twilight 5:53 AM AKST 6:06 PM AKST
Moon 6:13 PM AKST (1/17) 8:14 AM AKST (1/17)
Length of Visible Light 9h 08m
Length of Day
7h 38m
Full, 98% of the Moon is Illuminated
Jan 17
Full
Jan 23
Last Quarter
Jan 30
New
Feb 6
First Quarter
Feb 14
Full

Hourly Weather History & Observations

Time (AKST) Temp. Windchill Dew Point Humidity Pressure Visibility Wind Dir Wind Speed Gust Speed Precip Events Conditions
12:16 AM 42.8 °F 37.0 °F 37.4 °F 81% 30.25 in 10.0 mi East 10.4 mph - N/A   Overcast
12:36 AM 42.8 °F 37.0 °F 37.4 °F 81% 30.24 in 10.0 mi East 10.4 mph - N/A   Overcast
12:56 AM 42.8 °F 37.5 °F 37.4 °F 81% 30.24 in 10.0 mi East 9.2 mph - N/A   Overcast
1:16 AM 42.8 °F 37.5 °F 35.6 °F 76% 30.25 in 10.0 mi ESE 9.2 mph - N/A   Overcast
1:36 AM 42.8 °F 36.2 °F 37.4 °F 81% 30.25 in 10.0 mi East 12.7 mph - N/A   Overcast
1:56 AM 42.8 °F 37.5 °F 37.4 °F 81% 30.25 in 10.0 mi East 9.2 mph - N/A   Overcast
2:16 AM 42.8 °F 37.0 °F 37.4 °F 81% 30.25 in 10.0 mi East 10.4 mph - N/A   Overcast
2:36 AM 42.8 °F 36.2 °F 37.4 °F 81% 30.24 in 10.0 mi East 12.7 mph - N/A   Overcast
2:56 AM 42.8 °F 36.2 °F 37.4 °F 81% 30.23 in 10.0 mi East 12.7 mph - N/A   Overcast
3:16 AM 42.8 °F 37.0 °F 37.4 °F 81% 30.22 in 10.0 mi East 10.4 mph - N/A   Overcast
3:36 AM 42.8 °F 38.6 °F 35.6 °F 76% 30.21 in 10.0 mi SE 6.9 mph - N/A   Overcast
3:56 AM 42.8 °F 38.6 °F 35.6 °F 76% 30.20 in 10.0 mi SSE 6.9 mph - N/A   Overcast
4:16 AM 42.8 °F 38.6 °F 35.6 °F 76% 30.20 in 10.0 mi SE 6.9 mph - N/A   Scattered Clouds
4:36 AM 42.8 °F 41.1 °F 37.4 °F 81% 30.19 in 10.0 mi ESE 3.5 mph - N/A   Clear
4:56 AM 42.8 °F 38.0 °F 37.4 °F 81% 30.16 in 10.0 mi East 8.1 mph - N/A   Clear
5:16 AM 42.8 °F 37.0 °F 35.6 °F 76% 30.16 in 10.0 mi East 10.4 mph - N/A   Clear
5:36 AM 42.8 °F 37.5 °F 35.6 °F 76% 30.16 in 10.0 mi ESE 9.2 mph - N/A   Clear
5:56 AM 42.8 °F 36.6 °F 35.6 °F 76% 30.14 in 10.0 mi East 11.5 mph - N/A   Partly Cloudy
6:16 AM 42.8 °F 40.1 °F 35.6 °F 76% 30.16 in 10.0 mi South 4.6 mph - N/A   Partly Cloudy
6:36 AM 42.8 °F 37.5 °F 35.6 °F 76% 30.16 in 10.0 mi ESE 9.2 mph - N/A   Partly Cloudy
6:56 AM 42.8 °F 38.6 °F 35.6 °F 76% 30.17 in 10.0 mi SE 6.9 mph - N/A   Mostly Cloudy
7:16 AM 41.0 °F 37.1 °F 35.6 °F 81% 30.18 in 10.0 mi ESE 5.8 mph - N/A   Mostly Cloudy
7:36 AM 42.8 °F 39.3 °F 35.6 °F 76% 30.17 in 10.0 mi ESE 5.8 mph - N/A   Mostly Cloudy
7:56 AM 41.0 °F 35.2 °F 35.6 °F 81% 30.16 in 10.0 mi East 9.2 mph - N/A   Scattered Clouds
8:16 AM 42.8 °F 37.0 °F 35.6 °F 76% 30.17 in 10.0 mi ESE 10.4 mph - N/A   Scattered Clouds
8:36 AM 41.0 °F 38.0 °F 35.6 °F 81% 30.17 in 10.0 mi SE 4.6 mph - N/A   Scattered Clouds
8:56 AM 42.8 °F 37.0 °F 35.6 °F 76% 30.16 in 10.0 mi SE 10.4 mph - N/A   Mostly Cloudy
9:16 AM 42.8 °F 37.5 °F 35.6 °F 76% 30.16 in 10.0 mi SE 9.2 mph - N/A   Mostly Cloudy
9:36 AM 42.8 °F 35.8 °F 35.6 °F 76% 30.15 in 10.0 mi East 13.8 mph 18.4 mph N/A   Mostly Cloudy
9:56 AM 42.8 °F 37.0 °F 37.4 °F 81% 30.15 in 10.0 mi East 10.4 mph - N/A   Mostly Cloudy
10:16 AM 44.6 °F 39.2 °F 35.6 °F 71% 30.15 in 10.0 mi East 10.4 mph - N/A   Mostly Cloudy
10:36 AM 44.6 °F 38.8 °F 35.6 °F 71% 30.13 in 10.0 mi East 11.5 mph 16.1 mph N/A   Mostly Cloudy
10:56 AM 44.6 °F 37.2 °F 37.4 °F 76% 30.12 in 10.0 mi ENE 17.3 mph 20.7 mph N/A   Mostly Cloudy
11:16 AM 44.6 °F 39.7 °F 37.4 °F 76% 30.12 in 10.0 mi East 9.2 mph - N/A   Mostly Cloudy
11:36 AM 44.6 °F 39.7 °F 37.4 °F 76% 30.11 in 10.0 mi East 9.2 mph 16.1 mph N/A   Mostly Cloudy
11:56 AM 44.6 °F 41.4 °F 37.4 °F 76% 30.12 in 10.0 mi ENE 5.8 mph - N/A   Mostly Cloudy
12:16 PM 44.6 °F 39.2 °F 37.4 °F 76% 30.10 in 10.0 mi ENE 10.4 mph 17.3 mph N/A   Mostly Cloudy
12:36 PM 44.6 °F 39.7 °F 37.4 °F 76% 30.09 in 10.0 mi East 9.2 mph - N/A   Mostly Cloudy
12:56 PM 44.6 °F 41.4 °F 37.4 °F 76% 30.08 in 10.0 mi ESE 5.8 mph - N/A   Mostly Cloudy
1:16 PM 46.4 °F 42.4 °F 37.4 °F 71% 30.06 in 10.0 mi East 8.1 mph - N/A   Mostly Cloudy
1:36 PM 44.6 °F 40.7 °F 35.6 °F 71% 30.05 in 10.0 mi ESE 6.9 mph - N/A   Mostly Cloudy
1:56 PM 46.4 °F 42.4 °F 35.6 °F 66% 30.04 in 10.0 mi ESE 8.1 mph - N/A   Mostly Cloudy
2:16 PM 44.6 °F 39.7 °F 35.6 °F 71% 30.03 in 10.0 mi ESE 9.2 mph - N/A   Mostly Cloudy
2:36 PM 44.6 °F 40.7 °F 35.6 °F 71% 30.02 in 10.0 mi ESE 6.9 mph - N/A   Mostly Cloudy
2:56 PM 44.6 °F 40.2 °F 35.6 °F 71% 30.01 in 10.0 mi ESE 8.1 mph - N/A   Mostly Cloudy
3:16 PM 44.6 °F 39.7 °F 35.6 °F 71% 30.00 in 10.0 mi SE 9.2 mph - N/A   Mostly Cloudy
3:36 PM 44.6 °F 40.7 °F 35.6 °F 71% 30.00 in 10.0 mi SE 6.9 mph - N/A   Mostly Cloudy
3:56 PM 44.6 °F 38.8 °F 35.6 °F 71% 29.98 in 10.0 mi ESE 11.5 mph - N/A   Mostly Cloudy
4:16 PM 44.6 °F 39.7 °F 35.6 °F 71% 29.97 in 10.0 mi SE 9.2 mph - N/A   Mostly Cloudy
4:36 PM 44.6 °F 39.2 °F 35.6 °F 71% 29.96 in 10.0 mi ESE 10.4 mph - N/A   Mostly Cloudy
4:56 PM 44.6 °F 38.8 °F 35.6 °F 71% 29.94 in 10.0 mi ESE 11.5 mph - N/A   Mostly Cloudy
5:16 PM 44.6 °F 39.7 °F 33.8 °F 66% 29.93 in 10.0 mi SE 9.2 mph - N/A   Mostly Cloudy
5:36 PM 42.8 °F 38.6 °F 33.8 °F 70% 29.92 in 10.0 mi SSE 6.9 mph - N/A   Mostly Cloudy
5:56 PM 42.8 °F 38.0 °F 32.0 °F 66% 29.91 in 10.0 mi SE 8.1 mph - N/A   Mostly Cloudy
6:16 PM 42.8 °F 38.0 °F 33.8 °F 70% 29.89 in 10.0 mi SE 8.1 mph - N/A   Mostly Cloudy
6:36 PM 42.8 °F 38.0 °F 32.0 °F 66% 29.88 in 10.0 mi SSE 8.1 mph - N/A   Mostly Cloudy
6:56 PM 42.8 °F 38.0 °F 32.0 °F 66% 29.87 in 10.0 mi SSE 8.1 mph - N/A   Clear
7:16 PM 42.8 °F 38.0 °F 33.8 °F 70% 29.85 in 10.0 mi ESE 8.1 mph - N/A   Clear
7:36 PM 42.8 °F 38.6 °F 33.8 °F 70% 29.84 in 10.0 mi ESE 6.9 mph - N/A   Clear
7:56 PM 42.8 °F 37.5 °F 32.0 °F 66% 29.83 in 10.0 mi ESE 9.2 mph - N/A   Clear
8:16 PM 42.8 °F 37.5 °F 32.0 °F 66% 29.82 in 10.0 mi SE 9.2 mph - N/A   Clear
8:36 PM 42.8 °F 37.5 °F 33.8 °F 70% 29.81 in 10.0 mi ESE 9.2 mph - N/A   Clear
8:56 PM 42.8 °F 37.5 °F 32.0 °F 66% 29.81 in 10.0 mi SSE 9.2 mph - N/A   Mostly Cloudy
9:16 PM 42.8 °F 37.5 °F 30.2 °F 61% 29.81 in 10.0 mi SSE 9.2 mph - N/A   Mostly Cloudy
9:36 PM 41.0 °F 33.9 °F 30.2 °F 65% 29.80 in 10.0 mi SE 12.7 mph - N/A   Mostly Cloudy
9:56 PM 41.0 °F 33.5 °F 30.2 °F 65% 29.79 in 10.0 mi SE 13.8 mph - N/A   Mostly Cloudy
10:16 PM 41.0 °F 34.7 °F 30.2 °F 65% 29.79 in 10.0 mi SE 10.4 mph - N/A   Mostly Cloudy
10:36 PM 39.2 °F 32.5 °F 30.2 °F 70% 29.78 in 10.0 mi SE 10.4 mph - N/A   Mostly Cloudy
10:56 PM 39.2 °F 34.2 °F 32.0 °F 75% 29.77 in 10.0 mi SE 6.9 mph - N/A   Mostly Cloudy
11:16 PM 41.0 °F 34.7 °F 30.2 °F 65% 29.75 in 10.0 mi SE 10.4 mph - N/A   Clear
11:36 PM 42.8 °F 38.0 °F 32.0 °F 66% 29.76 in 10.0 mi ESE 8.1 mph - N/A   Clear
11:56 PM 42.8 °F 35.8 °F 32.0 °F 66% 29.73 in 10.0 mi ESE 13.8 mph 24.2 mph N/A   Clear